Year,Month,Day,Hour,Minute,Value (Times are PST for temperature in C)
2009,12,16,00,00,6.80
2009,12,16,00,01,6.80
2009,12,16,00,02,6.80
2009,12,16,00,03,6.80
2009,12,16,00,04,6.90
2009,12,16,00,05,6.90
2009,12,16,00,06,6.90
2009,12,16,00,07,6.90
2009,12,16,00,08,6.90
2009,12,16,00,09,6.90
2009,12,16,00,10,6.80
2009,12,16,00,11,6.80
2009,12,16,00,12,6.80
2009,12,16,00,13,6.80
2009,12,16,00,14,6.80
2009,12,16,00,15,6.70
2009,12,16,00,16,6.60
2009,12,16,00,17,6.50
2009,12,16,00,18,6.40
2009,12,16,00,19,6.40
2009,12,16,00,20,6.30
2009,12,16,00,21,6.30
2009,12,16,00,22,6.40
2009,12,16,00,23,6.40
2009,12,16,00,24,6.40
2009,12,16,00,25,6.40
2009,12,16,00,26,6.40
2009,12,16,00,27,6.40
2009,12,16,00,28,6.40
2009,12,16,00,29,6.40
2009,12,16,00,30,6.30
2009,12,16,00,31,6.30
2009,12,16,00,32,6.20
2009,12,16,00,33,6.20
2009,12,16,00,34,6.20
2009,12,16,00,35,6.10
2009,12,16,00,36,6.10
2009,12,16,00,37,6.10
2009,12,16,00,38,6.20
2009,12,16,00,39,6.20
2009,12,16,00,40,6.20
2009,12,16,00,41,6.20
2009,12,16,00,42,6.10
2009,12,16,00,43,5.90
2009,12,16,00,44,5.70
2009,12,16,00,45,5.60
2009,12,16,00,46,5.50
2009,12,16,00,47,5.50
2009,12,16,00,48,5.40
2009,12,16,00,49,5.30
2009,12,16,00,50,5.20
2009,12,16,00,51,5.30
2009,12,16,00,52,5.30
2009,12,16,00,53,5.30
2009,12,16,00,54,5.30
2009,12,16,00,55,5.40
2009,12,16,00,56,5.40
2009,12,16,00,57,5.40
2009,12,16,00,58,5.30
2009,12,16,00,59,5.30
2009,12,16,01,00,5.30
2009,12,16,01,01,5.30
2009,12,16,01,02,5.40
2009,12,16,01,03,5.50
2009,12,16,01,04,5.60
2009,12,16,01,05,5.70
2009,12,16,01,06,5.70
2009,12,16,01,07,5.40
2009,12,16,01,08,5.30
2009,12,16,01,09,5.20
2009,12,16,01,10,5.10
2009,12,16,01,11,5.00
2009,12,16,01,12,4.80
2009,12,16,01,13,4.70
2009,12,16,01,14,4.60
2009,12,16,01,15,4.40
2009,12,16,01,16,4.20
2009,12,16,01,17,4.20
2009,12,16,01,18,4.10
2009,12,16,01,19,4.00
2009,12,16,01,20,4.00
2009,12,16,01,21,4.00
2009,12,16,01,22,4.00
2009,12,16,01,23,4.00
2009,12,16,01,24,4.00
2009,12,16,01,25,4.00
2009,12,16,01,26,3.90
2009,12,16,01,27,3.90
2009,12,16,01,28,3.80
2009,12,16,01,29,3.80
2009,12,16,01,30,3.80
2009,12,16,01,31,3.70
2009,12,16,01,32,3.70
2009,12,16,01,33,3.70
2009,12,16,01,34,3.70
2009,12,16,01,35,3.60
2009,12,16,01,36,3.60
2009,12,16,01,37,3.60
2009,12,16,01,38,3.50
2009,12,16,01,39,3.50
2009,12,16,01,40,3.40
2009,12,16,01,41,3.40
2009,12,16,01,42,3.40
2009,12,16,01,43,3.30
2009,12,16,01,44,3.30
2009,12,16,01,45,3.20
2009,12,16,01,46,3.20
2009,12,16,01,47,3.10
2009,12,16,01,48,3.10
2009,12,16,01,49,3.10
2009,12,16,01,50,3.10
2009,12,16,01,51,3.10
2009,12,16,01,52,3.10
2009,12,16,01,53,3.10
2009,12,16,01,54,2.90
2009,12,16,01,55,2.90
2009,12,16,01,56,2.90
2009,12,16,01,57,2.90
2009,12,16,01,58,2.90
2009,12,16,01,59,2.90
2009,12,16,02,00,2.90
2009,12,16,02,01,2.90
2009,12,16,02,02,2.90
2009,12,16,02,03,2.90
2009,12,16,02,04,2.90
2009,12,16,02,05,2.90
2009,12,16,02,06,2.90
2009,12,16,02,07,2.80
2009,12,16,02,08,2.80
2009,12,16,02,09,2.80
2009,12,16,02,10,2.80
2009,12,16,02,11,2.70
2009,12,16,02,12,2.70
2009,12,16,02,13,2.70
2009,12,16,02,14,2.70
2009,12,16,02,15,2.70
2009,12,16,02,16,2.60
2009,12,16,02,17,2.60
2009,12,16,02,18,2.50
2009,12,16,02,19,2.50
2009,12,16,02,20,2.50
2009,12,16,02,21,2.50
2009,12,16,02,22,2.50
2009,12,16,02,23,2.50
2009,12,16,02,24,2.50
2009,12,16,02,25,2.40
2009,12,16,02,26,2.40
2009,12,16,02,27,2.40
2009,12,16,02,28,2.50
2009,12,16,02,29,2.50
2009,12,16,02,30,2.50
2009,12,16,02,31,2.50
2009,12,16,02,32,2.50
2009,12,16,02,33,2.50
2009,12,16,02,34,2.50
2009,12,16,02,35,2.60
2009,12,16,02,36,2.70
2009,12,16,02,37,2.70
2009,12,16,02,38,2.70
2009,12,16,02,39,2.90
2009,12,16,02,40,2.90
2009,12,16,02,41,3.10
2009,12,16,02,42,3.00
2009,12,16,02,43,2.90
2009,12,16,02,44,2.90
2009,12,16,02,45,2.80
2009,12,16,02,46,2.70
2009,12,16,02,47,2.70
2009,12,16,02,48,2.70
2009,12,16,02,49,2.80
2009,12,16,02,50,2.80
2009,12,16,02,51,2.90
2009,12,16,02,52,2.90
2009,12,16,02,53,2.80
2009,12,16,02,54,2.80
2009,12,16,02,55,2.80
2009,12,16,02,56,2.70
2009,12,16,02,57,2.60
2009,12,16,02,58,2.50
2009,12,16,02,59,2.40
2009,12,16,03,00,2.30
2009,12,16,03,01,2.30
2009,12,16,03,02,2.20
2009,12,16,03,03,2.20
2009,12,16,03,04,2.20
2009,12,16,03,05,2.20
2009,12,16,03,06,2.10
2009,12,16,03,07,2.10
2009,12,16,03,08,2.20
2009,12,16,03,09,2.10
2009,12,16,03,10,2.10
2009,12,16,03,11,2.10
2009,12,16,03,12,2.00
2009,12,16,03,13,2.00
2009,12,16,03,14,1.90
2009,12,16,03,15,1.80
2009,12,16,03,16,1.80
2009,12,16,03,17,1.80
2009,12,16,03,18,1.80
2009,12,16,03,19,1.80
2009,12,16,03,20,1.80
2009,12,16,03,21,1.80
2009,12,16,03,22,1.80
2009,12,16,03,23,1.80
2009,12,16,03,24,1.80
2009,12,16,03,25,1.80
2009,12,16,03,26,1.90
2009,12,16,03,27,1.90
2009,12,16,03,28,1.90
2009,12,16,03,29,1.90
2009,12,16,03,30,2.00
2009,12,16,03,31,2.00
2009,12,16,03,32,2.10
2009,12,16,03,33,2.10
2009,12,16,03,34,2.10
2009,12,16,03,35,2.20
2009,12,16,03,36,2.30
2009,12,16,03,37,2.30
2009,12,16,03,38,2.40
2009,12,16,03,39,2.40
2009,12,16,03,40,2.30
2009,12,16,03,41,2.30
2009,12,16,03,42,2.20
2009,12,16,03,43,2.20
2009,12,16,03,44,2.20
2009,12,16,03,45,2.20
2009,12,16,03,46,2.20
2009,12,16,03,47,2.20
2009,12,16,03,48,2.20
2009,12,16,03,49,2.20
2009,12,16,03,50,2.20
2009,12,16,03,51,2.20
2009,12,16,03,52,2.20
2009,12,16,03,53,2.20
2009,12,16,03,54,2.30
2009,12,16,03,55,2.30
2009,12,16,03,56,2.30
2009,12,16,03,57,2.40
2009,12,16,03,58,2.50
2009,12,16,03,59,2.50
2009,12,16,04,00,2.60
2009,12,16,04,01,2.60
2009,12,16,04,02,2.60
2009,12,16,04,03,2.70
2009,12,16,04,04,2.70
2009,12,16,04,05,2.80
2009,12,16,04,06,2.90
2009,12,16,04,07,3.10
2009,12,16,04,08,3.10
2009,12,16,04,09,3.20
2009,12,16,04,10,3.20
2009,12,16,04,11,3.20
2009,12,16,04,12,3.20
2009,12,16,04,13,3.10
2009,12,16,04,14,3.10
2009,12,16,04,15,3.10
2009,12,16,04,16,3.10
2009,12,16,04,17,3.10
2009,12,16,04,18,3.10
2009,12,16,04,19,3.10
2009,12,16,04,20,3.10
2009,12,16,04,21,3.10
2009,12,16,04,22,3.10
2009,12,16,04,23,3.10
2009,12,16,04,24,3.10
2009,12,16,04,25,3.10
2009,12,16,04,26,3.10
2009,12,16,04,27,3.20
2009,12,16,04,28,3.20
2009,12,16,04,29,3.30
2009,12,16,04,30,3.30
2009,12,16,04,31,3.30
2009,12,16,04,32,3.30
2009,12,16,04,33,3.30
2009,12,16,04,34,3.30
2009,12,16,04,35,3.30
2009,12,16,04,36,3.40
2009,12,16,04,37,3.50
2009,12,16,04,38,3.50
2009,12,16,04,39,3.60
2009,12,16,04,40,3.70
2009,12,16,04,41,3.70
2009,12,16,04,42,3.60
2009,12,16,04,43,3.60
2009,12,16,04,44,3.50
2009,12,16,04,45,3.50
2009,12,16,04,46,3.40
2009,12,16,04,47,3.40
2009,12,16,04,48,3.40
2009,12,16,04,49,3.40
2009,12,16,04,50,3.40
2009,12,16,04,51,3.40
2009,12,16,04,52,3.40
2009,12,16,04,53,3.40
2009,12,16,04,54,3.40
2009,12,16,04,55,3.40
2009,12,16,04,56,3.40
2009,12,16,04,57,3.50
2009,12,16,04,58,3.50
2009,12,16,04,59,3.50
2009,12,16,05,00,3.40
2009,12,16,05,01,3.40
2009,12,16,05,02,3.30
2009,12,16,05,03,3.30
2009,12,16,05,04,3.30
2009,12,16,05,05,3.30
2009,12,16,05,06,3.30
2009,12,16,05,07,3.30
2009,12,16,05,08,3.30
2009,12,16,05,09,3.30
2009,12,16,05,10,3.30
2009,12,16,05,11,3.30
2009,12,16,05,12,3.30
2009,12,16,05,13,3.30
2009,12,16,05,14,3.30
2009,12,16,05,15,3.40
2009,12,16,05,16,3.40
2009,12,16,05,17,3.40
2009,12,16,05,18,3.40
2009,12,16,05,19,3.40
2009,12,16,05,20,3.40
2009,12,16,05,21,3.40
2009,12,16,05,22,3.40
2009,12,16,05,23,3.50
2009,12,16,05,24,3.60
2009,12,16,05,25,3.60
2009,12,16,05,26,3.80
2009,12,16,05,27,3.80
2009,12,16,05,28,3.90
2009,12,16,05,29,4.00
2009,12,16,05,30,4.00
2009,12,16,05,31,4.00
2009,12,16,05,32,4.00
2009,12,16,05,33,4.00
2009,12,16,05,34,4.00
2009,12,16,05,35,4.00
2009,12,16,05,36,4.00
2009,12,16,05,37,4.10
2009,12,16,05,38,4.20
2009,12,16,05,39,4.20
2009,12,16,05,40,4.30
2009,12,16,05,41,4.30
2009,12,16,05,42,4.40
2009,12,16,05,43,4.40
2009,12,16,05,44,4.40
2009,12,16,05,45,4.50
2009,12,16,05,46,4.50
2009,12,16,05,47,4.50
2009,12,16,05,48,4.50
2009,12,16,05,49,4.50
2009,12,16,05,50,4.50
2009,12,16,05,51,4.70
2009,12,16,05,52,4.80
2009,12,16,05,53,4.90
2009,12,16,05,54,5.00
2009,12,16,05,55,5.10
2009,12,16,05,56,5.10
2009,12,16,05,57,5.10
2009,12,16,05,58,5.30
2009,12,16,05,59,5.30
2009,12,16,06,00,5.20
2009,12,16,06,01,5.10
2009,12,16,06,02,5.10
2009,12,16,06,03,5.10
2009,12,16,06,04,5.10
2009,12,16,06,05,5.10
2009,12,16,06,06,5.10
2009,12,16,06,07,5.10
2009,12,16,06,08,5.20
2009,12,16,06,09,5.10
2009,12,16,06,10,5.10
2009,12,16,06,11,5.10
2009,12,16,06,12,5.10
2009,12,16,06,13,5.10
2009,12,16,06,14,5.10
2009,12,16,06,15,5.10
2009,12,16,06,16,5.10
2009,12,16,06,17,5.10
2009,12,16,06,18,5.10
2009,12,16,06,19,5.10
2009,12,16,06,20,5.10
2009,12,16,06,21,5.20
2009,12,16,06,22,5.20
2009,12,16,06,23,5.30
2009,12,16,06,24,5.30
2009,12,16,06,25,5.30
2009,12,16,06,26,5.30
2009,12,16,06,27,5.30
2009,12,16,06,28,5.20
2009,12,16,06,29,5.10
2009,12,16,06,30,5.10
2009,12,16,06,31,5.10
2009,12,16,06,32,5.00
2009,12,16,06,33,4.90
2009,12,16,06,34,4.80
2009,12,16,06,35,4.80
2009,12,16,06,36,4.70
2009,12,16,06,37,4.60
2009,12,16,06,38,4.70
2009,12,16,06,39,4.80
2009,12,16,06,40,4.80
2009,12,16,06,41,4.80
2009,12,16,06,42,4.80
2009,12,16,06,43,4.80
2009,12,16,06,44,4.70
2009,12,16,06,45,4.70
2009,12,16,06,46,4.70
2009,12,16,06,47,4.80
2009,12,16,06,48,4.80
2009,12,16,06,49,4.90
2009,12,16,06,50,5.00
2009,12,16,06,51,5.20
2009,12,16,06,52,5.30
2009,12,16,06,53,5.40
2009,12,16,06,54,5.30
2009,12,16,06,55,5.40
2009,12,16,06,56,5.40
2009,12,16,06,57,5.50
2009,12,16,06,58,5.50
2009,12,16,06,59,5.50
2009,12,16,07,00,5.50
2009,12,16,07,01,5.50
2009,12,16,07,02,5.50
2009,12,16,07,03,5.60
2009,12,16,07,04,5.60
2009,12,16,07,05,5.70
2009,12,16,07,06,5.70
2009,12,16,07,07,5.60
2009,12,16,07,08,5.50
2009,12,16,07,09,5.30
2009,12,16,07,10,5.30
2009,12,16,07,11,5.30
2009,12,16,07,12,5.40
2009,12,16,07,13,5.40
2009,12,16,07,14,5.50
2009,12,16,07,15,5.50
2009,12,16,07,16,5.40
2009,12,16,07,17,5.30
2009,12,16,07,18,5.20
2009,12,16,07,19,5.20
2009,12,16,07,20,5.20
2009,12,16,07,21,5.10
2009,12,16,07,22,5.10
2009,12,16,07,23,5.20
2009,12,16,07,24,5.20
2009,12,16,07,25,5.20
2009,12,16,07,26,5.30
2009,12,16,07,27,5.30
2009,12,16,07,28,5.30
2009,12,16,07,29,5.40
2009,12,16,07,30,5.40
2009,12,16,07,31,5.40
2009,12,16,07,32,5.30
2009,12,16,07,33,5.30
2009,12,16,07,34,5.20
2009,12,16,07,35,5.20
2009,12,16,07,36,5.20
2009,12,16,07,37,5.20
2009,12,16,07,38,5.30
2009,12,16,07,39,5.30
2009,12,16,07,40,5.30
2009,12,16,07,41,5.40
2009,12,16,07,42,5.40
2009,12,16,07,43,5.30
2009,12,16,07,44,5.30
2009,12,16,07,45,5.30
2009,12,16,07,46,5.40
2009,12,16,07,47,5.40
2009,12,16,07,48,5.40
2009,12,16,07,49,5.50
2009,12,16,07,50,5.50
2009,12,16,07,51,5.50
2009,12,16,07,52,5.50
2009,12,16,07,53,5.60
2009,12,16,07,54,5.60
2009,12,16,07,55,5.60
2009,12,16,07,56,5.70
2009,12,16,07,57,5.70
2009,12,16,07,58,5.80
2009,12,16,07,59,5.80
2009,12,16,08,00,5.80
2009,12,16,08,01,5.80
2009,12,16,08,02,5.80
2009,12,16,08,03,5.70
2009,12,16,08,04,5.70
2009,12,16,08,05,5.70
2009,12,16,08,06,5.70
2009,12,16,08,07,5.70
2009,12,16,08,08,5.70
2009,12,16,08,09,5.80
2009,12,16,08,10,5.90
2009,12,16,08,11,5.90
2009,12,16,08,12,6.00
2009,12,16,08,13,6.00
2009,12,16,08,14,6.00
2009,12,16,08,15,6.10
2009,12,16,08,16,6.20
2009,12,16,08,17,6.30
2009,12,16,08,18,6.40
2009,12,16,08,19,6.40
2009,12,16,08,20,6.40
2009,12,16,08,21,6.30
2009,12,16,08,22,6.20
2009,12,16,08,23,6.20
2009,12,16,08,24,6.10
2009,12,16,08,25,6.10
2009,12,16,08,26,6.00
2009,12,16,08,27,6.00
2009,12,16,08,28,5.90
2009,12,16,08,29,5.90
2009,12,16,08,30,5.90
2009,12,16,08,31,5.90
2009,12,16,08,32,5.90
2009,12,16,08,33,5.90
2009,12,16,08,34,5.90
2009,12,16,08,35,6.00
2009,12,16,08,36,6.00
2009,12,16,08,37,6.00
2009,12,16,08,38,6.00
2009,12,16,08,39,5.90
2009,12,16,08,40,5.90
2009,12,16,08,41,5.90
2009,12,16,08,42,6.00
2009,12,16,08,43,6.00
2009,12,16,08,44,6.00
2009,12,16,08,45,6.00
2009,12,16,08,46,6.00
2009,12,16,08,47,6.00
2009,12,16,08,48,6.00
2009,12,16,08,49,6.00
2009,12,16,08,50,6.00
2009,12,16,08,51,6.00
2009,12,16,08,52,6.00
2009,12,16,08,53,6.00
2009,12,16,08,54,6.00
2009,12,16,08,55,6.10
2009,12,16,08,56,6.10
2009,12,16,08,57,6.10
2009,12,16,08,58,6.10
2009,12,16,08,59,6.10
2009,12,16,09,00,6.20
2009,12,16,09,01,6.20
2009,12,16,09,02,6.20
2009,12,16,09,03,6.20
2009,12,16,09,04,6.20
2009,12,16,09,05,6.20
2009,12,16,09,06,6.30
2009,12,16,09,07,6.40
2009,12,16,09,08,6.40
2009,12,16,09,09,6.50
2009,12,16,09,10,6.60
2009,12,16,09,11,6.60
2009,12,16,09,12,6.70
2009,12,16,09,13,6.80
2009,12,16,09,14,6.80
2009,12,16,09,15,6.90
2009,12,16,09,16,7.00
2009,12,16,09,17,7.00
2009,12,16,09,18,7.10
2009,12,16,09,19,7.10
2009,12,16,09,20,7.10
2009,12,16,09,21,7.20
2009,12,16,09,22,7.20
2009,12,16,09,23,7.20
2009,12,16,09,24,7.30
2009,12,16,09,25,7.30
2009,12,16,09,26,7.30
2009,12,16,09,27,7.40
2009,12,16,09,28,7.40
2009,12,16,09,29,7.40
2009,12,16,09,30,7.40
2009,12,16,09,31,7.40
2009,12,16,09,32,7.30
2009,12,16,09,33,7.30
2009,12,16,09,34,7.20
2009,12,16,09,35,7.20
2009,12,16,09,36,7.20
2009,12,16,09,37,7.20
2009,12,16,09,38,7.30
2009,12,16,09,39,7.30
2009,12,16,09,40,7.30
2009,12,16,09,41,7.30
2009,12,16,09,42,7.40
2009,12,16,09,43,7.40
2009,12,16,09,44,7.40
2009,12,16,09,45,7.40
2009,12,16,09,46,7.40
2009,12,16,09,47,7.50
2009,12,16,09,48,7.60
2009,12,16,09,49,7.60
2009,12,16,09,50,7.70
2009,12,16,09,51,7.70
2009,12,16,09,52,7.70
2009,12,16,09,53,7.80
2009,12,16,09,54,7.80
2009,12,16,09,55,7.80
2009,12,16,09,56,7.80
2009,12,16,09,57,7.90
2009,12,16,09,58,7.90
2009,12,16,09,59,7.90
2009,12,16,10,00,7.90
2009,12,16,10,01,8.00
2009,12,16,10,02,8.00
2009,12,16,10,03,8.00
2009,12,16,10,04,8.00
2009,12,16,10,05,8.10
2009,12,16,10,06,8.10
2009,12,16,10,07,8.10
2009,12,16,10,08,8.10
2009,12,16,10,09,8.10
2009,12,16,10,10,8.10
2009,12,16,10,11,8.10
2009,12,16,10,12,8.10
2009,12,16,10,13,8.10
2009,12,16,10,14,8.20
2009,12,16,10,15,8.20
2009,12,16,10,16,8.20
2009,12,16,10,17,8.20
2009,12,16,10,18,8.20
2009,12,16,10,19,8.20
2009,12,16,10,20,8.20
2009,12,16,10,21,8.20
2009,12,16,10,22,8.20
2009,12,16,10,23,8.20
2009,12,16,10,24,8.20
2009,12,16,10,25,8.20
2009,12,16,10,26,8.20
2009,12,16,10,27,8.20
2009,12,16,10,28,8.20
2009,12,16,10,29,8.20
2009,12,16,10,30,8.20
2009,12,16,10,31,8.20
2009,12,16,10,32,8.20
2009,12,16,10,33,8.20
2009,12,16,10,34,8.20
2009,12,16,10,35,8.20
2009,12,16,10,36,8.20
2009,12,16,10,37,8.20
2009,12,16,10,38,8.20
2009,12,16,10,39,8.20
2009,12,16,10,40,8.20
2009,12,16,10,41,8.20
2009,12,16,10,42,8.20
2009,12,16,10,43,8.20
2009,12,16,10,44,8.20
2009,12,16,10,45,8.20
2009,12,16,10,46,8.20
2009,12,16,10,47,8.20
2009,12,16,10,48,8.20
2009,12,16,10,49,8.20
2009,12,16,10,50,8.20
2009,12,16,10,51,8.10
2009,12,16,10,52,8.10
2009,12,16,10,53,8.10
2009,12,16,10,54,8.10
2009,12,16,10,55,8.10
2009,12,16,10,56,8.10
2009,12,16,10,57,8.10
2009,12,16,10,58,8.20
2009,12,16,10,59,8.20
2009,12,16,11,00,8.20
2009,12,16,11,01,8.20
2009,12,16,11,02,8.20
2009,12,16,11,03,8.20
2009,12,16,11,04,8.20
2009,12,16,11,05,8.20
2009,12,16,11,06,8.20
2009,12,16,11,07,8.20
2009,12,16,11,08,8.20
2009,12,16,11,09,8.20
2009,12,16,11,10,8.20
2009,12,16,11,11,8.20
2009,12,16,11,12,8.20
2009,12,16,11,13,8.20
2009,12,16,11,14,8.20
2009,12,16,11,15,8.20
2009,12,16,11,16,8.20
2009,12,16,11,17,8.20
2009,12,16,11,18,8.30
2009,12,16,11,19,8.30
2009,12,16,11,20,8.30
2009,12,16,11,21,8.30
2009,12,16,11,22,8.30
2009,12,16,11,23,8.40
2009,12,16,11,24,8.40
2009,12,16,11,25,8.50
2009,12,16,11,26,8.50
2009,12,16,11,27,8.60
2009,12,16,11,28,8.60
2009,12,16,11,29,8.70
2009,12,16,11,30,8.70
2009,12,16,11,31,8.70
2009,12,16,11,32,8.70
2009,12,16,11,33,8.70
2009,12,16,11,34,8.70
2009,12,16,11,35,8.70
2009,12,16,11,36,8.80
2009,12,16,11,37,8.80
2009,12,16,11,38,8.80
2009,12,16,11,39,8.80
2009,12,16,11,40,8.80
2009,12,16,11,41,8.80
2009,12,16,11,42,8.80
2009,12,16,11,43,8.80
2009,12,16,11,44,8.80
2009,12,16,11,45,8.80
2009,12,16,11,46,8.80
2009,12,16,11,47,8.80
2009,12,16,11,48,8.70
2009,12,16,11,49,8.70
2009,12,16,11,50,8.70
2009,12,16,11,51,8.70
2009,12,16,11,52,8.70
2009,12,16,11,53,8.70
2009,12,16,11,54,8.60
2009,12,16,11,55,8.60
2009,12,16,11,56,8.60
2009,12,16,11,57,8.60
2009,12,16,11,58,8.60
2009,12,16,11,59,8.60
2009,12,16,12,00,8.60
2009,12,16,12,01,8.60
2009,12,16,12,02,8.60
2009,12,16,12,03,8.60
2009,12,16,12,04,8.60
2009,12,16,12,05,8.60
2009,12,16,12,06,8.60
2009,12,16,12,07,8.60
2009,12,16,12,08,8.60
2009,12,16,12,09,8.60
2009,12,16,12,10,8.60
2009,12,16,12,11,8.60
2009,12,16,12,12,8.60
2009,12,16,12,13,8.70
2009,12,16,12,14,8.70
2009,12,16,12,15,8.70
2009,12,16,12,16,8.60
2009,12,16,12,17,8.60
2009,12,16,12,18,8.60
2009,12,16,12,19,8.60
2009,12,16,12,20,8.60
2009,12,16,12,21,8.60
2009,12,16,12,22,8.60
2009,12,16,12,23,8.60
2009,12,16,12,24,8.60
2009,12,16,12,25,8.60
2009,12,16,12,26,8.60
2009,12,16,12,27,8.50
2009,12,16,12,28,8.50
2009,12,16,12,29,8.50
2009,12,16,12,30,8.50
2009,12,16,12,31,8.60
2009,12,16,12,32,8.60
2009,12,16,12,33,8.60
2009,12,16,12,34,8.60
2009,12,16,12,35,8.60
2009,12,16,12,36,8.60
2009,12,16,12,37,8.60
2009,12,16,12,38,8.60
2009,12,16,12,39,8.60
2009,12,16,12,40,8.60
2009,12,16,12,41,8.60
2009,12,16,12,42,8.60
2009,12,16,12,43,8.60
2009,12,16,12,44,8.70
2009,12,16,12,45,8.70
2009,12,16,12,46,8.70
2009,12,16,12,47,8.70
2009,12,16,12,48,8.70
2009,12,16,12,49,8.70
2009,12,16,12,50,8.70
2009,12,16,12,51,8.70
2009,12,16,12,52,8.70
2009,12,16,12,53,8.70
2009,12,16,12,54,8.70
2009,12,16,12,55,8.70
2009,12,16,12,56,8.70
2009,12,16,12,57,8.70
2009,12,16,12,58,8.70
2009,12,16,12,59,8.70
2009,12,16,13,00,8.70
2009,12,16,13,01,8.70
2009,12,16,13,02,8.70
2009,12,16,13,03,8.70
2009,12,16,13,04,8.70
2009,12,16,13,05,8.70
2009,12,16,13,06,8.70
2009,12,16,13,07,8.70
2009,12,16,13,08,8.70
2009,12,16,13,09,8.70
2009,12,16,13,10,8.70
2009,12,16,13,11,8.70
2009,12,16,13,12,8.70
2009,12,16,13,13,8.70
2009,12,16,13,14,8.70
2009,12,16,13,15,8.70
2009,12,16,13,16,8.70
2009,12,16,13,17,8.70
2009,12,16,13,18,8.70
2009,12,16,13,19,8.70
2009,12,16,13,20,8.60
2009,12,16,13,21,8.60
2009,12,16,13,22,8.60
2009,12,16,13,23,8.60
2009,12,16,13,24,8.60
2009,12,16,13,25,8.60
2009,12,16,13,26,8.60
2009,12,16,13,27,8.60
2009,12,16,13,28,8.50
2009,12,16,13,29,8.50
2009,12,16,13,30,8.50
2009,12,16,13,31,8.50
2009,12,16,13,32,8.50
2009,12,16,13,33,8.50
2009,12,16,13,34,8.50
2009,12,16,13,35,8.50
2009,12,16,13,36,8.50
2009,12,16,13,37,8.60
2009,12,16,13,38,8.60
2009,12,16,13,39,8.60
2009,12,16,13,40,8.60
2009,12,16,13,41,8.60
2009,12,16,13,42,8.60
2009,12,16,13,43,8.60
2009,12,16,13,44,8.60
2009,12,16,13,45,8.60
2009,12,16,13,46,8.60
2009,12,16,13,47,8.60
2009,12,16,13,48,8.70
2009,12,16,13,49,8.70
2009,12,16,13,50,8.70
2009,12,16,13,51,8.70
2009,12,16,13,52,8.70
2009,12,16,13,53,8.70
2009,12,16,13,54,8.70
2009,12,16,13,55,8.70
2009,12,16,13,56,8.70
2009,12,16,13,57,8.70
2009,12,16,13,58,8.70
2009,12,16,13,59,8.70
2009,12,16,14,00,8.70
2009,12,16,14,01,8.70
2009,12,16,14,02,8.70
2009,12,16,14,03,8.70
2009,12,16,14,04,8.70
2009,12,16,14,05,8.80
2009,12,16,14,06,8.80
2009,12,16,14,07,8.80
2009,12,16,14,08,8.90
2009,12,16,14,09,8.90
2009,12,16,14,10,8.90
2009,12,16,14,11,8.90
2009,12,16,14,12,8.90
2009,12,16,14,13,9.00
2009,12,16,14,14,9.00
2009,12,16,14,15,9.00
2009,12,16,14,16,9.00
2009,12,16,14,17,9.10
2009,12,16,14,18,9.10
2009,12,16,14,19,9.10
2009,12,16,14,20,9.10
2009,12,16,14,21,9.10
2009,12,16,14,22,9.10
2009,12,16,14,23,9.10
2009,12,16,14,24,9.10
2009,12,16,14,25,9.20
2009,12,16,14,26,9.20
2009,12,16,14,27,9.20
2009,12,16,14,28,9.20
2009,12,16,14,29,9.20
2009,12,16,14,30,9.20
2009,12,16,14,31,9.20
2009,12,16,14,32,9.20
2009,12,16,14,33,9.20
2009,12,16,14,34,9.20
2009,12,16,14,35,9.20
2009,12,16,14,36,9.20
2009,12,16,14,37,9.20
2009,12,16,14,38,9.20
2009,12,16,14,39,9.20
2009,12,16,14,40,9.20
2009,12,16,14,41,9.20
2009,12,16,14,42,9.20
2009,12,16,14,43,9.20
2009,12,16,14,44,9.20
2009,12,16,14,45,9.20
2009,12,16,14,46,9.20
2009,12,16,14,47,9.20
2009,12,16,14,48,9.20
2009,12,16,14,49,9.20
2009,12,16,14,50,9.20
2009,12,16,14,51,9.20
2009,12,16,14,52,9.20
2009,12,16,14,53,9.20
2009,12,16,14,54,9.20
2009,12,16,14,55,9.20
2009,12,16,14,56,9.20
2009,12,16,14,57,9.20
2009,12,16,14,58,9.20
2009,12,16,14,59,9.20
2009,12,16,15,00,9.20
2009,12,16,15,01,9.20
2009,12,16,15,02,9.20
2009,12,16,15,03,9.20
2009,12,16,15,04,9.20
2009,12,16,15,05,9.20
2009,12,16,15,06,9.20
2009,12,16,15,07,9.20
2009,12,16,15,08,9.20
2009,12,16,15,09,9.20
2009,12,16,15,10,9.20
2009,12,16,15,11,9.20
2009,12,16,15,12,9.20
2009,12,16,15,13,9.20
2009,12,16,15,14,9.20
2009,12,16,15,15,9.20
2009,12,16,15,16,9.20
2009,12,16,15,17,9.20
2009,12,16,15,18,9.20
2009,12,16,15,19,9.20
2009,12,16,15,20,9.20
2009,12,16,15,21,9.20
2009,12,16,15,22,9.20
2009,12,16,15,23,9.10
2009,12,16,15,24,9.10
2009,12,16,15,25,9.10
2009,12,16,15,26,9.10
2009,12,16,15,27,9.10
2009,12,16,15,28,9.10
2009,12,16,15,29,9.10
2009,12,16,15,30,9.10
2009,12,16,15,31,9.00
2009,12,16,15,32,9.00
2009,12,16,15,33,9.00
2009,12,16,15,34,9.00
2009,12,16,15,35,9.00
2009,12,16,15,36,9.00
2009,12,16,15,37,9.00
2009,12,16,15,38,9.00
2009,12,16,15,39,9.00
2009,12,16,15,40,9.00
2009,12,16,15,41,9.00
2009,12,16,15,42,9.00
2009,12,16,15,43,9.00
2009,12,16,15,44,9.00
2009,12,16,15,45,9.00
2009,12,16,15,46,9.00
2009,12,16,15,47,9.00
2009,12,16,15,48,8.90
2009,12,16,15,49,8.90
2009,12,16,15,50,8.90
2009,12,16,15,51,8.90
2009,12,16,15,52,8.90
2009,12,16,15,53,8.90
2009,12,16,15,54,8.90
2009,12,16,15,55,8.90
2009,12,16,15,56,8.90
2009,12,16,15,57,8.90
2009,12,16,15,58,8.90
2009,12,16,15,59,8.90
2009,12,16,16,00,8.90
2009,12,16,16,01,8.90
2009,12,16,16,02,8.80
2009,12,16,16,03,8.80
2009,12,16,16,04,8.80
2009,12,16,16,05,8.80
2009,12,16,16,06,8.80
2009,12,16,16,07,8.80
2009,12,16,16,08,8.80
2009,12,16,16,09,8.80
2009,12,16,16,10,8.80
2009,12,16,16,11,8.80
2009,12,16,16,12,8.80
2009,12,16,16,13,8.80
2009,12,16,16,14,8.80
2009,12,16,16,15,8.80
2009,12,16,16,16,8.80
2009,12,16,16,17,8.80
2009,12,16,16,18,8.80
2009,12,16,16,19,8.80
2009,12,16,16,20,8.80
2009,12,16,16,21,8.80
2009,12,16,16,22,8.80
2009,12,16,16,23,8.80
2009,12,16,16,24,8.80
2009,12,16,16,25,8.80
2009,12,16,16,26,8.80
2009,12,16,16,27,8.80
2009,12,16,16,28,8.80
2009,12,16,16,29,8.80
2009,12,16,16,30,8.80
2009,12,16,16,31,8.80
2009,12,16,16,32,8.80
2009,12,16,16,33,8.80
2009,12,16,16,34,8.80
2009,12,16,16,35,8.80
2009,12,16,16,36,8.80
2009,12,16,16,37,8.80
2009,12,16,16,38,8.80
2009,12,16,16,39,8.80
2009,12,16,16,40,8.80
2009,12,16,16,41,8.90
2009,12,16,16,42,8.90
2009,12,16,16,43,8.90
2009,12,16,16,44,8.90
2009,12,16,16,45,8.90
2009,12,16,16,46,8.90
2009,12,16,16,47,8.90
2009,12,16,16,48,8.90
2009,12,16,16,49,8.90
2009,12,16,16,50,8.90
2009,12,16,16,51,8.90
2009,12,16,16,52,8.90
2009,12,16,16,53,8.90
2009,12,16,16,54,8.90
2009,12,16,16,55,8.90
2009,12,16,16,56,9.00
2009,12,16,16,57,9.00
2009,12,16,16,58,8.90
2009,12,16,16,59,9.00
2009,12,16,17,00,9.00
2009,12,16,17,01,9.00
2009,12,16,17,02,9.00
2009,12,16,17,03,9.00
2009,12,16,17,04,9.00
2009,12,16,17,05,9.00
2009,12,16,17,06,9.00
2009,12,16,17,07,9.00
2009,12,16,17,08,9.00
2009,12,16,17,09,9.00
2009,12,16,17,10,9.00
2009,12,16,17,11,9.00
2009,12,16,17,12,9.00
2009,12,16,17,13,8.90
2009,12,16,17,14,8.90
2009,12,16,17,15,8.90
2009,12,16,17,16,8.90
2009,12,16,17,17,8.90
2009,12,16,17,18,8.90
2009,12,16,17,19,8.90
2009,12,16,17,20,8.90
2009,12,16,17,21,8.90
2009,12,16,17,22,8.90
2009,12,16,17,23,8.90
2009,12,16,17,24,8.90
2009,12,16,17,25,8.90
2009,12,16,17,26,8.90
2009,12,16,17,27,8.90
2009,12,16,17,28,8.90
2009,12,16,17,29,8.90
2009,12,16,17,30,8.90
2009,12,16,17,31,8.90
2009,12,16,17,32,8.90
2009,12,16,17,33,8.90
2009,12,16,17,34,8.90
2009,12,16,17,35,8.90
2009,12,16,17,36,8.90
2009,12,16,17,37,8.90
2009,12,16,17,38,8.80
2009,12,16,17,39,8.80
2009,12,16,17,40,8.80
2009,12,16,17,41,8.80
2009,12,16,17,42,8.90
2009,12,16,17,43,8.90
2009,12,16,17,44,9.00
2009,12,16,17,45,9.00
2009,12,16,17,46,9.00
2009,12,16,17,47,9.10
2009,12,16,17,48,9.10
2009,12,16,17,49,9.10
2009,12,16,17,50,9.10
2009,12,16,17,51,9.10
2009,12,16,17,52,9.10
2009,12,16,17,53,9.10
2009,12,16,17,54,9.10
2009,12,16,17,55,9.10
2009,12,16,17,56,9.10
2009,12,16,17,57,9.10
2009,12,16,17,58,9.00
2009,12,16,17,59,9.00
2009,12,16,18,00,9.00
2009,12,16,18,01,9.00
2009,12,16,18,02,9.00
2009,12,16,18,03,9.00
2009,12,16,18,04,9.00
2009,12,16,18,05,9.00
2009,12,16,18,06,9.00